Weather in Pimpri-Chinchwad

India     18°38′21″N   73°47′57″E
temp.,
°C
wind,
m/s
gust,
m/s
humid.,
%
clouds,
%
prec.,
mm/h
press.,
hPa
HPBL,
m
8 may, sat
sat823:30+27w35559 0.0 1011209
02:30+26wnw24570 0.0 1009117
05:30+25wnw235845 0.0 101082
08:30+29wnw22417 0.0 1011424
11:30+34ssw13280 0.0 10102160
14:30+36ssw222390 0.0 10063385
17:30+34w653347 0.0 10061277
20:30+31wnw453981 0.0 1008453
9 may, sun
sun923:30+29w364414 0.0 1009301
02:30+27w24512 0.0 1007196
05:30+26wnw24550 0.0 1008134
08:30+30wnw22410 0.0 1010404
11:30+35wsw232823 0.0 10082360
14:30+36w322768 0.0 10052863
17:30+32w654394 0.3 1006881
20:30+29w574764 0.1 1008545
10 may, mon
mon1023:30+27w35501 0.1 1009318
02:30+26w35550 0.0 1007218
05:30+25wnw37610 0.0 1008293
08:30+28wnw454764 0.1 1009502
11:30+33wnw543511 0.1 10091235
14:30+36wnw653097 0.0 10062918
17:30+33wnw77365 0.1 10051243
20:30+28w47475 0.0 1008568
11 may, tue
tue1123:30+26w46605 0.0 1009355
02:30+24wnw46734 0.0 1008313
05:30+23wnw47851 0.0 1008334
08:30+26wnw46581 0.0 1010638
11:30+33wnw67333 0.0 10091329
14:30+35w77252 0.0 10062180
17:30+32w77320 0.0 10061358
20:30+27w58515 0.0 1008601
12 may, wed
wed1223:30+24w48736 0.0 1009496
02:30+23wnw49813 0.0 1008579
05:30+22w488357 0.0 1008510
08:30+26wnw576115 0.0 1009806
11:30+32wnw672769 0.0 10081590
14:30+35wnw77158 0.0 10052333
17:30+32wnw772678 0.0 10051554
20:30+26w475533 0.0 1006636